Location: Oakhurst
(33.6448°N, 111.9543°W)
Time: 13:42:30
(UTC+00:00)

SPROUT - Pass Details

Date: 02 August 2021
Orbit: 597 x 607 km, 97.9° (Epoch: 21 September)

Event Time Altitude Azimuth Distance (km) Brightness Sun altitude
Exits shadow 07:58:57 11° 354° (N) 1,849 ? -38.3°
Drops below altitude 10° 07:59:10 10° 354° (N) 1,938 ? -38.3°
Sets 08:01:21 0° 351° (N) 2,844 ? -38.3°
